Weather History for KPVF - November, 2012

Change the Weather History Date:

Monday, November 5, 2012

  Actual Average Record
Temperature  
Mean Temperature 66 °F -  
Max Temperature 73 °F 68 °F 77 °F (2010)
Min Temperature 59 °F 41 °F 44 °F (2013)
Cooling Degree Days 1    
Growing Degree Days 16 (Base 50)    
Moisture  
Dew Point 46 °F    
Average Humidity 47    
Maximum Humidity 63    
Minimum Humidity 33    
Precipitation  
Precipitation 0.00 in - - ()
Sea Level Pressure  
Sea Level Pressure 30.21 in    
Wind  
Wind Speed 1 mph (ESE)    
Max Wind Speed 7 mph    
Max Gust Speed -    
Visibility 10 miles    
Events      
Averages and records for this station are not official NWS values.
T = Trace of Precipitation, MM = Missing Value Source: NWS Daily Summary

Daily Weather History Graph

Daily Weather History Graph

Search for Another Location

Airport or City:

Trip Planner

Search our weather history database for the weather conditions in past years. The results will help you decide how hot, cold, wet, or windy it might be!

Date:

Astronomy

Nov. 05, 2012 Rise Set
Actual Time 6:34 AM PST 4:57 PM PST
Civil Twilight 6:07 AM PST 5:25 PM PST
Nautical Twilight 5:35 AM PST 5:57 PM PST
Astronomical Twilight 5:04 AM PST 6:28 PM PST
Moon 10:40 PM PST (11/5) 11:57 AM PST (11/5)
Length of Visible Light 11h 18m
Length of Day
10h 22m
Waning Gibbous, 62% of the Moon is Illuminated
Nov 5
Waning Gibbous
Nov 6
Last Quarter
Nov 13
New
Nov 20
First Quarter
Nov 28
Full

Hourly Weather History & Observations

Time (PST) Temp. Dew Point Humidity Pressure Visibility Wind Dir Wind Speed Gust Speed Precip Events Conditions
12:15 AM 64.4 °F 48.2 °F 56% 30.25 in 10.0 mi Calm Calm - N/A   Clear
12:35 AM 62.6 °F 48.2 °F 59% 30.25 in 10.0 mi Calm Calm - N/A   Clear
12:55 AM 62.6 °F 48.2 °F 59% 30.24 in 10.0 mi Calm Calm - N/A   Clear
1:15 AM 60.8 °F 46.4 °F 59% 30.24 in 10.0 mi Calm Calm - N/A   Clear
1:35 AM 60.8 °F 46.4 °F 59% 30.25 in 10.0 mi Calm Calm - N/A   Clear
1:55 AM 60.8 °F 46.4 °F 59% 30.24 in 10.0 mi Calm Calm - N/A   Clear
2:15 AM 60.8 °F 46.4 °F 59% 30.24 in 10.0 mi Calm Calm - N/A   Clear
2:35 AM 60.8 °F 46.4 °F 59% 30.23 in 10.0 mi ESE 4.6 mph - N/A   Clear
2:55 AM 60.8 °F 46.4 °F 59% 30.23 in 10.0 mi Calm Calm - N/A   Clear
3:15 AM 59.0 °F 46.4 °F 63% 30.22 in 10.0 mi ESE 6.9 mph - N/A   Clear
3:35 AM 60.8 °F 46.4 °F 59% 30.23 in 10.0 mi Calm Calm - N/A   Clear
3:55 AM 62.6 °F 46.4 °F 55% 30.23 in 10.0 mi Calm Calm - N/A   Clear
4:15 AM 62.6 °F 46.4 °F 55% 30.23 in 10.0 mi Calm Calm - N/A   Clear
4:35 AM 62.6 °F 46.4 °F 55% 30.23 in 10.0 mi Calm Calm - N/A   Clear
4:55 AM 62.6 °F 44.6 °F 52% 30.23 in 10.0 mi Calm Calm - N/A   Clear
5:15 AM 64.4 °F 44.6 °F 49% 30.23 in 10.0 mi Calm Calm - N/A   Clear
5:35 AM 64.4 °F 44.6 °F 49% 30.23 in 10.0 mi Calm Calm - N/A   Clear
5:55 AM 62.6 °F 42.8 °F 48% 30.23 in 10.0 mi Calm Calm - N/A   Clear
6:15 AM 64.4 °F 41.0 °F 42% 30.24 in 10.0 mi Calm Calm - N/A   Clear
6:35 AM 62.6 °F 41.0 °F 45% 30.24 in 10.0 mi Calm Calm - N/A   Clear
6:55 AM 59.0 °F 39.2 °F 48% 30.25 in 10.0 mi Calm Calm - N/A   Clear
7:15 AM 64.4 °F 39.2 °F 40% 30.25 in 10.0 mi Calm Calm - N/A   Clear
7:35 AM 66.2 °F 41.0 °F 40% 30.25 in 10.0 mi Calm Calm - N/A   Clear
7:55 AM 66.2 °F 44.6 °F 46% 30.26 in 10.0 mi Calm Calm - N/A   Clear
8:15 AM 66.2 °F 41.0 °F 40% 30.26 in 10.0 mi Calm Calm - N/A   Clear
8:35 AM 68.0 °F 44.6 °F 43% 30.26 in 10.0 mi Calm Calm - N/A   Clear
8:55 AM 69.8 °F 44.6 °F 40% 30.26 in 10.0 mi Calm Calm - N/A   Clear
9:15 AM 69.8 °F 39.2 °F 33% 30.26 in 10.0 mi Calm Calm - N/A   Clear
9:35 AM 71.6 °F 42.8 °F 35% 30.25 in 10.0 mi Calm Calm - N/A   Clear
9:55 AM 71.6 °F 42.8 °F 35% 30.25 in 10.0 mi Calm Calm - N/A   Clear
10:15 AM 71.6 °F 42.8 °F 35% 30.25 in 10.0 mi Calm Calm - N/A   Clear
10:35 AM 71.6 °F 46.4 °F 41% 30.24 in 10.0 mi Calm Calm - N/A   Clear
10:55 AM 73.4 °F 48.2 °F 41% 30.24 in 10.0 mi Calm Calm - N/A   Clear
11:15 AM 71.6 °F 46.4 °F 41% 30.23 in 10.0 mi Calm Calm - N/A   Clear
11:35 AM 71.6 °F 48.2 °F 43% 30.23 in 10.0 mi Calm Calm - N/A   Clear
11:55 AM 71.6 °F 48.2 °F 43% 30.22 in 10.0 mi Calm Calm - N/A   Clear
12:15 PM 73.4 °F 48.2 °F 41% 30.21 in 10.0 mi Calm Calm - N/A   Clear
12:35 PM 71.6 °F 48.2 °F 43% 30.21 in 10.0 mi Calm Calm - N/A   Clear
12:55 PM 73.4 °F 48.2 °F 41% 30.20 in 10.0 mi Calm Calm - N/A   Clear
1:15 PM 73.4 °F 48.2 °F 41% 30.19 in 10.0 mi Calm Calm - N/A   Clear
1:35 PM 73.4 °F 48.2 °F 41% 30.19 in 10.0 mi Calm Calm - N/A   Clear
1:55 PM 73.4 °F 50.0 °F 44% 30.19 in 10.0 mi Calm Calm - N/A   Clear
2:15 PM 73.4 °F 50.0 °F 44% 30.18 in 10.0 mi Calm Calm - N/A   Clear
2:35 PM 73.4 °F 50.0 °F 44% 30.18 in 10.0 mi Calm Calm - N/A   Clear
2:55 PM 73.4 °F 50.0 °F 44% 30.18 in 10.0 mi Calm Calm - N/A   Clear
3:15 PM 73.4 °F 48.2 °F 41% 30.18 in 10.0 mi Calm Calm - N/A   Clear
3:35 PM 73.4 °F 48.2 °F 41% 30.18 in 10.0 mi Calm Calm - N/A   Clear
3:55 PM 73.4 °F 48.2 °F 41% 30.17 in 10.0 mi Calm Calm - N/A   Clear
4:15 PM 73.4 °F 50.0 °F 44% 30.17 in 10.0 mi Calm Calm - N/A   Clear
4:35 PM 73.4 °F 50.0 °F 44% 30.17 in 10.0 mi Calm Calm - N/A   Clear
4:55 PM 71.6 °F 48.2 °F 43% 30.17 in 10.0 mi Calm Calm - N/A   Clear
5:15 PM 71.6 °F 46.4 °F 41% 30.17 in 10.0 mi Calm Calm - N/A   Clear
5:35 PM 71.6 °F 48.2 °F 43% 30.17 in 10.0 mi Calm Calm - N/A   Clear
5:55 PM 69.8 °F 48.2 °F 46% 30.17 in 10.0 mi Calm Calm - N/A   Clear
6:15 PM 66.2 °F 50.0 °F 56% 30.18 in 10.0 mi Calm Calm - N/A   Clear
6:35 PM 66.2 °F 50.0 °F 56% 30.18 in 10.0 mi Calm Calm - N/A   Clear
6:55 PM 66.2 °F 50.0 °F 56% 30.18 in 10.0 mi Calm Calm - N/A   Clear
7:15 PM 66.2 °F 50.0 °F 56% 30.17 in 10.0 mi ESE 5.8 mph - N/A   Clear
7:35 PM 66.2 °F 50.0 °F 56% 30.18 in 10.0 mi East 4.6 mph - N/A   Clear
7:55 PM 68.0 °F 48.2 °F 49% 30.18 in 10.0 mi East 6.9 mph - N/A   Clear
8:15 PM 68.0 °F 48.2 °F 49% 30.18 in 10.0 mi Calm Calm - N/A   Clear
8:35 PM 64.4 °F 48.2 °F 56% 30.18 in 10.0 mi Calm Calm - N/A   Clear
8:55 PM 66.2 °F 46.4 °F 49% 30.18 in 10.0 mi East 6.9 mph - N/A   Clear
9:15 PM 64.4 °F 46.4 °F 52% 30.18 in 10.0 mi East 6.9 mph - N/A   Clear
9:35 PM 66.2 °F 44.6 °F 46% 30.18 in 10.0 mi ESE 6.9 mph - N/A   Clear
9:55 PM 66.2 °F 44.6 °F 46% 30.18 in 10.0 mi East 3.5 mph - N/A   Clear
10:15 PM 66.2 °F 42.8 °F 43% 30.18 in 10.0 mi Calm Calm - N/A   Clear
10:35 PM 62.6 °F 41.0 °F 45% 30.18 in 10.0 mi East 4.6 mph - N/A   Clear
10:55 PM 64.4 °F 41.0 °F 42% 30.18 in 10.0 mi Calm Calm - N/A   Clear
11:15 PM 66.2 °F 39.2 °F 37% 30.18 in 10.0 mi Calm Calm - N/A   Clear
11:35 PM 66.2 °F 37.4 °F 35% 30.18 in 10.0 mi Calm Calm - N/A   Clear
11:55 PM 66.2 °F 39.2 °F 37% 30.18 in 10.0 mi Calm Calm - N/A   Clear